Regional Weather Roundup
Issued by NWS Charleston, SC

Current Version | Previous Version | Text Only | Print | Product List | Glossary Off
Versions: 1 2 3 4 5 6 7 8 9 10 11 12 13 14 15 16 17 18 19 20 21 22 23 24 25 26 27 28 29 30 31 32 33 34 35 36 37 38 39 40 41 42 43 44 45 46 47 48 49 50
000 ASUS42 KCHS 050828 RWRCHS REGIONAL WEATHER ROUNDUP NATIONAL WEATHER SERVICE CHARLESTON SC 400 AM EDT THU MAY 05 2016 NOTE: "FAIR" INDICATES FEW OR NO CLOUDS BELOW 12,000 FEET WITH NO SIGNIFICANT WEATHER AND/OR OBSTRUCTIONS TO VISIBILITY. NOT ALL STATIONS ARE QUALITY CONTROLLED. USE DATA WITH CAUTION... ESPECIALLY DEWPOINT OBSERVATIONS. SCZ027-030-031-034>040-042>050-050900- ...SOUTHEAST SOUTH CAROLINA... CITY SKY/WX TMP DP RH WIND PRES REMARKS N CHARLESTON CLEAR 59 48 67 W8 29.59F WATERFRONT PRK N/A 62 50 64 W5 29.58F MOUNT PLEASANT FAIR 59 50 72 CALM 29.59S JOHNS ISLAND FAIR 57 50 77 W6 29.60S PINOPOLIS N/A 64 52 63 W12 29.52F MONCKS CORNER FAIR 54 45 71 CALM 29.58F SUMMERVILLE FAIR 54 52 94 CALM 29.60S BEAUFORT MCAS CLEAR 60 48 64 W7 29.62F BEAUFORT ARPT FAIR 61 46 59 W7 29.62S HILTON HEAD IS CLEAR 63 48 59 W7 29.64S WALTERBORO SUNNY 55 48 76 W5 29.61S ALLENDALE FAIR 55 50 82 CALM 29.61S ...SOUTHERN MIDLANDS AND PEE DEE... CITY SKY/WX TMP DP RH WIND PRES REMARKS GEORGETOWN FAIR 54 45 71 W5 29.57S KINGSTREE FAIR 54 46 76 CALM 29.56F ORANGEBURG PTCLDY 58 46 64 W6 29.59F BARNWELL FAIR 57 52 82 CALM 29.62S AIKEN FAIR 54 45 71 W8 29.65R MANNING FAIR 54 46 76 CALM 29.57S COLUMBIA PTCLDY 58 47 66 W6 29.58F SUMTER PTCLDY 56 47 71 W10 29.54F FLORENCE MOCLDY 55 50 83 SW3 29.55F MYRTLE BEACH CLEAR 61 46 59 W3 29.57S N MYRTLE BEACH CLOUDY 59 50 72 W5 29.54F $$ GAZ063-065-086>088-099>101-113>116-118-119-134>141-150-050900- ...SOUTHEAST GEORGIA... CITY SKY/WX TMP DP RH WIND PRES REMARKS SAVANNAH ARPT CLEAR 58 48 69 W5 29.64F HUNTER AAF CLEAR 57 49 76 W6 29.61F FORT STEWART CLEAR 59 48 65 CALM 29.62F STATESBORO CLEAR 60 54 81 W5 29.64S SYLVANIA MOSUNNY 56 52 88 CALM 29.63S CLAXTON FAIR 55 52 89 SW5 29.66R ...CSRA...CENTRAL AND FAR SOUTHEAST GEORGIA... CITY SKY/WX TMP DP RH WIND PRES REMARKS THOMSON CLEAR 56 52 85 W10 29.69S AUGUSTA-BUSH CLEAR 58 49 72 NW13 29.62S AUGUSTA-DANIEL CLEAR 58 47 66 W8 29.63S SWAINSBORO FAIR 55 50 82 NW9 29.67R VIDALIA PTCLDY 57 50 77 W3 29.68R EASTMAN FAIR 58 50 75 NW5 29.73R HAZLEHURST FAIR 57 51 79 W3 29.68S ALMA CLEAR 58 49 72 W5 29.68F WAYCROSS CLEAR 58 50 76 W6 29.69R JESUP FAIR 61 52 72 NW5 29.67S BAXLEY FAIR 59 50 72 W6 29.68R BRUNSWICK PTCLDY 63 54 72 W3 29.68R SAINT SIMONS PTCLDY 61 50 67 VRB6 29.66F $$ SCZ027-028-034-036>038-045-046-048>050-GAZ119-141-050900- ...LAKE AND SUPPLEMENTAL COASTAL OBSERVATIONS... STATION/POSITION TIME TEMP WIND PRES WAVE SWELL AIR SEA DIR/SP/G HT/PER HT/PER/DIR (UTC) (F) (DEG/KT/KT) (MB) (FT/S) (FT/S/D) WINYAH BAY 0700 60 300/ 3 1001.0F LAKE MURRAY 0700 59 300/ 4/ 8 1002.4F ACE BASIN NERRS 0700 59 CALM 1003.0F FORT PULASKI 0800 64 75 300/ 12/ 16 1003.7S SAPELO ISLAND 0800 62 280/ 6 1004.0S $$ ANZ835-935-AMZ111-154-330-350-352-354-370-450-454-472-050900- ...C-MAN AND BUOY OBSERVATIONS... STATION/POSITION TIME TEMP WIND PRES WAVE SWELL AIR SEA DIR/SP/G HT/PER HT/PER/DIR (UTC) (F) (DEG/KT/KT) (MB) (FT/S) (FT/S/D) BUOY 41004 0750 70 74 310/ 16/ 19 1001.0F 4/ 5 2/ 9 BUOY 41008 NOT AVBL FOLLY BEACH CMAN 0800 59 280/ 5/ 8 1002.2F CAPERS NEARSHORE 0708 66 70 300/ 12/ 16 1001.5F FRIPP NEARSHORE 0808 65 69 310/ 12/ 16 1002.1F STATION/POSITION TIME TEMP WIND PRES WAVE SWELL AIR SEA DIR/SP/G HT/PER HT/PER/DIR (UTC) (F) (DEG/KT/KT) (MB) (FT/S) (FT/S/D) 5E ST. MARYS GA 0721 71 N/A 2/ 6 FRYING PAN BUOY 0800 69 71 290/ 12/ 14 999.3F BUOY 41025 0750 62 70 20/ 17/ 19 999.3F 4/ 7 2/160/ 7 CAPE LOOKOUT NC 0800 63 40/ 14/ 15 999.1F BUOY 41002 0750 72 73 170/ 16/ 19 999.5F 6/ 7 2/100/ 9 BUOY 41010 0720 72 78 330/ 17/ 21 1001.0R ST AUGUSTINE FL 0800 61 70 290/ 6/ 7 1006.4R $$

USA.gov is the U.S. government's official web portal to all federal, state and local government web resources and services.